Tracking 35280 objects as of 7-Sep-2026
HD Live streaming from Space Station
objects crossing your sky now

COSMOS 1186 DEB


COSMOS 1186 DEB is no longer on orbit


NORAD ID: 12459
Int'l Code: 1980-047Q
Launch date: June 6, 1980
Source: Commonwealth of Independent States (former USSR) (CIS)
Launch site: PLESETSK MISSILE AND SPACE COMPLEX (PKMTR)
Decay date: 1981-05-20

Note: This is SATELLITE DEBRIS
Your satellite tracking list
Your tracking list is empty




NASA's NSSDC Master Catalog

Two Line Element Set (TLE):
1 12459U 80047  Q 81135.11705258  .00053497 +00000-0 +10533-2 0  9999
2 12459 074.0311 056.7559 0029264 226.9775 132.8985 15.46673315052450
Source of the keplerian elements: AFSPC